INTELSAT 11 (IS-11)

Last updated on Sun Jun 21 2026 00:03:04 GMT+0000 (Coordinated Universal Time)

1 32253U 07044B 26171.05797054 -.00000176 00000+0 00000+0 0 9997 2 32253 3.5740 78.6372 0002522 87.4130 236.3380 0.99049599 68477
UTC large
Height (km)
Speed (km/s)
/
Latitude / Longitude
Inclination (degrees)
Orbital Period (minutes)
Azimuth
Elevation
Range (km)
Doppler Factor

Next 0 passes for location: London (51.5072 / 0.1276)

No passes found over London.
INTELSAT 11 (IS-11)